Weather History for Klawock, AK

Change the Weather History Date:

Friday, November 8, 2013

  Actual Average Record
Temperature  
Mean Temperature 42 °F -  
Max Temperature 45 °F 44 °F 55 °F (2002)
Min Temperature 39 °F 34 °F 26 °F (2004)
Degree Days  
Heating Degree Days 23    
Moisture  
Dew Point 39 °F    
Average Humidity 92    
Maximum Humidity 97    
Minimum Humidity 82    
Precipitation  
Precipitation 0.03 in - - ()
Sea Level Pressure  
Sea Level Pressure 29.79 in    
Wind  
Wind Speed 6 mph (NE)    
Max Wind Speed 16 mph    
Max Gust Speed 18 mph    
Visibility 10 miles    
Events Rain    
Averages and records for this station are not official NWS values.
T = Trace of Precipitation, MM = Missing Value Source: NWS Daily Summary

Daily Weather History Graph

Daily Weather History Graph

Search for Another Location

Airport:

Trip Planner

Search our weather history database for the weather conditions in past years. The results will help you decide how hot, cold, wet, or windy it might be!

Date:

Astronomy

Nov. 08, 2013 Rise Set
Actual Time 7:13 AM AKST 3:57 PM AKST
Civil Twilight 6:32 AM AKST 4:38 PM AKST
Nautical Twilight 5:48 AM AKST 5:22 PM AKST
Astronomical Twilight 5:05 AM AKST 6:05 PM AKST
Moon 12:13 PM AKST (11/8) 9:31 PM AKST (11/8)
Length of Visible Light 10h 05m
Length of Day
8h 44m
Waxing Crescent, 34% of the Moon is Illuminated
Nov 8
Waxing Crescent
Nov 9
First Quarter
Nov 17
Full
Nov 25
Last Quarter
Dec 2
New

Hourly Weather History & Observations

Time (AKST) Temp. Windchill Dew Point Humidity Pressure Visibility Wind Dir Wind Speed Gust Speed Precip Events Conditions
12:53 AM 39.9 °F 36.7 °F 39.0 °F 97% 29.79 in 10.0 mi North 4.6 mph - 0.01 in   Overcast
1:53 AM 39.0 °F - 37.9 °F 96% 29.79 in 10.0 mi Calm Calm - 0.00 in   Overcast
3:53 AM 39.0 °F - 37.9 °F 96% 29.77 in 10.0 mi Calm Calm - N/A   Overcast
4:53 AM 39.0 °F 35.7 °F 37.9 °F 96% 29.77 in 10.0 mi NNE 4.6 mph - N/A   Overcast
5:53 AM 39.0 °F 36.8 °F 37.9 °F 96% 29.77 in 10.0 mi NE 3.5 mph - 0.01 in Rain Light Rain
6:30 AM 39.9 °F 36.7 °F 39.0 °F 97% 29.76 in 10.0 mi NE 4.6 mph - 0.01 in Rain Light Rain
6:40 AM 39.9 °F 37.8 °F 39.0 °F 97% 29.76 in 10.0 mi ENE 3.5 mph - 0.01 in Rain Light Rain
7:10 AM 39.9 °F 36.7 °F 39.0 °F 97% 29.76 in 10.0 mi NNE 4.6 mph - 0.00 in Rain Light Rain
7:53 AM 39.9 °F 35.8 °F 39.0 °F 97% 29.76 in 10.0 mi NE 5.8 mph - 0.01 in Rain Light Rain
8:53 AM 42.1 °F 38.4 °F 39.0 °F 89% 29.76 in 10.0 mi NNE 5.8 mph - 0.00 in   Overcast
10:53 AM 45.0 °F 39.7 °F 41.0 °F 86% 29.75 in 10.0 mi NNE 10.4 mph - N/A   Overcast
11:53 AM 45.0 °F 40.6 °F 39.9 °F 82% 29.75 in 10.0 mi NNE 8.1 mph - N/A   Mostly Cloudy
12:53 PM 45.0 °F 38.9 °F 39.9 °F 82% 29.75 in 10.0 mi NE 12.7 mph - N/A   Mostly Cloudy
1:53 PM 44.1 °F 39.0 °F 41.0 °F 89% 29.75 in 10.0 mi NE 9.2 mph - 0.00 in   Overcast
2:53 PM 44.1 °F 36.8 °F 39.9 °F 85% 29.75 in 10.0 mi NNE 16.1 mph - 0.00 in   Overcast
3:53 PM 43.0 °F 36.4 °F 39.9 °F 89% 29.76 in 10.0 mi NNE 12.7 mph - N/A   Overcast
5:53 PM 42.1 °F 36.6 °F 39.0 °F 89% 29.79 in 10.0 mi NE 9.2 mph - N/A   Clear
6:53 PM 42.1 °F 36.1 °F 39.9 °F 92% 29.83 in 10.0 mi NE 10.4 mph 18.4 mph N/A   Overcast
7:53 PM 42.1 °F 37.1 °F 39.0 °F 89% 29.85 in 10.0 mi NNE 8.1 mph - N/A   Partly Cloudy
8:53 PM 42.1 °F 39.2 °F 39.0 °F 89% 29.88 in 10.0 mi NE 4.6 mph - N/A   Mostly Cloudy
10:53 PM 39.9 °F 34.5 °F 37.9 °F 93% 29.92 in 10.0 mi NE 8.1 mph - N/A   Clear
11:53 PM 41.0 °F 36.4 °F 39.0 °F 93% 29.95 in 10.0 mi NE 6.9 mph - N/A   Mostly Cloudy